Weather in Labe

Guinea     11°25′48″N   12°17′47″W
temp.,
°C
wind,
m/s
gust,
m/s
humid.,
%
clouds,
%
prec.,
mm/h
press.,
hPa
HPBL,
m
9 august, tue
tue900:00+20nne1195100 8.4 101517
03:00+19wnw0199100 4.4 101439
06:00+19w1299100 5.1 101587
09:00+21ene009199 0.0 1016279
12:00+25nnw337499 0.0 1015931
15:00+26n337227 1.0 1012979
18:00+24n238661 2.4 1013487
21:00+21nne1196100 3.9 101511
10 august, wed
wed1000:00+20sw1195100 5.4 101511
03:00+20s1194100 5.1 101323
06:00+20sw119495 7.0 101418
09:00+22wsw1288100 0.4 1014288
12:00+25nnw118040 3.4 1015714
15:00+26wnw117696 2.3 1012828
18:00+23nne1291100 6.9 101250
21:00+21nne1192100 8.3 101413
11 august, thu
thu1100:00+20ssw129695 9.2 101550
03:00+20w239498 1.8 101377
06:00+20sw2293100 3.6 101437
09:00+21sw1191100 0.1 1015111
12:00+21ssw128798 1.7 1015104
15:00+25sw117672 2.2 1012872
18:00+22wsw129196 6.3 1012311
21:00+20ssw2396100 1.8 101588
12 august, fri
fri1200:00+19ssw249687 1.8 1016185
03:00+19sw2495100 0.0 1014223
06:00+18ssw239744 0.0 1014128
09:00+21sw258784 0.0 1015595
12:00+24sw358191 1.1 10151058
15:00+25wsw347290 1.6 10121199
18:00+22wsw269071 5.3 1013599
21:00+20wsw259699 0.9 1015219
13 august, sat
sat1300:00+19wsw1397100 1.3 1016136
03:00+19w1398100 1.3 1015239
06:00+19w2498100 1.8 1015265
09:00+20wsw2693100 0.2 1016525
12:00+21sw1390100 2.1 1016388
15:00+20wnw1295100 6.1 1015103
18:00+19w1297100 11.1 101567
21:00+19w1299100 7.8 1016101